[ hide orbit diagram ]
For accurate long-term ephemerides, please instead use our Horizons system.This orbit viewer was implemented using two-body methods, and hence should not be used for determining accurate long-term trajectories (over several years or decades) or planetary encounter circumstances.
Orbital Elements at Epoch 2458250.5 (2018-May-12.0) TDB
Reference: JPL 21 (heliocentric ecliptic J2000)
Element | Value | Uncertainty (1-sigma) | Units |
e | .6151793178094626 | 5.5737e-08 | |
a | 2.909656217599006 | 4.0737e-08 | au |
q | 1.119695890596388 | 1.7383e-07 | au |
i | 7.295751593922165 | 6.0538e-06 | deg |
node | 354.6259153705682 | 5.3624e-05 | deg |
peri | 37.05522118227328 | 6.0211e-05 | deg |
M | 257.3018202502478 | 4.1934e-06 | deg |
tp | 2458767.655551362000 (2019-Oct-11.15555136) | 2.8768e-05 | TDB |
period | 1812.846137526301 4.96 | 3.8071e-05 1.042e-07 | d yr |
n | .1985827658221641 | 4.1704e-09 | deg/d |
Q | 4.699616544601623 | 6.5797e-08 | au |
|
| | Orbit Determination Parameters
Additional Information
|
[ hide covariance matrix ]
Orbit Covariance (6×6)
|
|
e |
q |
tp |
node |
peri |
i |
e |
3.106595339264928E-15 |
-9.669569665816125E-15 |
-6.614671417906811E-13 |
3.089821803263581E-14 |
-1.079297465028203E-12 |
-6.366939894386067E-14 |
q |
-9.669569665816125E-15 |
3.021525170662669E-14 |
2.28522846114342E-12 |
-1.458341651729976E-13 |
3.589389663352961E-12 |
1.917601386799693E-13 |
tp |
-6.614671417906811E-13 |
2.28522846114342E-12 |
8.275845616868508E-10 |
2.878417012959044E-11 |
7.376665432120342E-10 |
-3.066765847549029E-11 |
node |
3.089821803263581E-14 |
-1.458341651729976E-13 |
2.878417012959044E-11 |
2.875526582812609E-9 |
-2.842137107448162E-9 |
1.408395055442265E-10 |
peri |
-1.079297465028203E-12 |
3.589389663352961E-12 |
7.376665432120342E-10 |
-2.842137107448162E-9 |
3.625320385471935E-9 |
-1.498785323380968E-10 |
i |
-6.366939894386067E-14 |
1.917601386799693E-13 |
-3.066765847549029E-11 |
1.408395055442265E-10 |
-1.498785323380968E-10 |
3.664860034748457E-11 |
|
[ show close-approach data ]
Alternate Designations
Perihelion Year (est.) | New-Style Desig | Roman Numeral | Year/ Letter | 2019.8 | 384P/2019 O1 | | |
2014.8 | 384P/2014 U2 | | |
|
|